Regional Weather Roundup
Issued by NWS

Home | Current Version | Previous Version | Graphics & Text | Print | Product List | Glossary On
Versions: 1 2 3 4 5 6 7 8 9 10 11 12 13 14 15 16 17 18 19 20 21 22 23 24 25 26 27 28 29 30 31 32 33 34 35 36 37 38 39 40 41 42 43 44 45 46 47 48 49 50
000
ASUS44 KMEG 290110
RWRTN
TENNESSEE HOURLY STATE WEATHER ROUNDUP
NATIONAL WEATHER SERVICE MEMPHIS TN
800 PM CDT FRI JUL 28 2017

TNZ002-004-019-021-049-052-054-088>092-290200-
WEST TENNESSEE

CITY           SKY/WX    TMP DP  RH WIND       PRES   REMARKS
MEMPHIS INTL   CLOUDY    81  79  94 NW6       29.85R HX  90
NWS MEMPHIS      N/A     80 N/A N/A MISG        N/A
JACKSON        CLEAR     85  75  72 N8        29.83R HX  93
SOMERVILLE       N/A     77  73  88 VRB3      29.84R
COVINGTON      PTCLDY    79  75  89 NW5       29.84R
UNION CITY     CLEAR     81  72  74 N7        29.83R
BOLIVAR        CLOUDY    79  73  83 CALM      29.83R
PARIS          CLEAR     79  72  78 N5        29.83R
HUNTINGDON     MOCLDY    82  72  69 CALM      29.83R
LEXINGTON      CLEAR     81  75  83 CALM      29.82R
SAVANNAH       FOG       77  75  94 VRB3G16   29.83R VSB 1
$$

TNZ008-025-027-028-033-062-065-066-290200-
NORTH MIDDLE TENNESSEE

CITY           SKY/WX    TMP DP  RH WIND       PRES   REMARKS
NASHVILLE      MOCLDY    82  72  71 NE14      29.82R
PORTLAND       MOCLDY    79  72  78 N7        29.82R
CLARKSVILLE    CLEAR     81  71  71 N8        29.82R
SMYRNA         CLOUDY    80  74  81 NE6       29.82R
COOKEVILLE     CLOUDY    75  73  94 CALM      29.82R
GALLATIN       PTCLDY    79  75  89 CALM      29.83R
CROSSVILLE     CLOUDY    73  70  90 N5        29.85R
$$

TNZ061-075-076-078-094-096-097-290200-
SOUTH MIDDLE TENNESSEE

CITY           SKY/WX    TMP DP  RH WIND       PRES   REMARKS
FAYETTEVILLE   CLOUDY    77  77 100 SW5       29.82R
TULLAHOMA      MOCLDY    75  72  88 W3        29.84R
WINCHESTER     MOCLDY    79  73  83 VRB3      29.82S
MCMINNVILLE    MOCLDY    75  75 100 N5        29.82R
COLUMBIA       CLOUDY    81  79  94 CALM      29.80R
SHELBYVILLE    MOCLDY    77  75  94 SW5       29.81R
$$

TNZ017-018-042-046-047-290200-
NORTHEAST TENNESSEE

CITY           SKY/WX    TMP DP  RH WIND       PRES   REMARKS
TRI CITIES     TSTM      73  73 100 W5        29.79R VSB 1
ELIZABETHTON   CLOUDY    73  72  94 CALM      29.78F
$$

TNZ012-013-036-069-073-074-290200-
CENTRAL EAST TENNESSEE

CITY           SKY/WX    TMP DP  RH WIND       PRES   REMARKS
KNOXVILLE      TSTM      75  73  93 NW14      29.78R
OAK RIDGE      LGT RAIN  74  71  91 CALM      29.78F FOG
DOWNTOWN KNOXV CLOUDY    75  75 100 CALM      29.76S FOG
GATLINBURG     MOCLDY    73  72  94 SW6       29.78R
MORRISTOWN     CLOUDY    75  73  94 W12       29.78R
JACKSBORO      CLOUDY    73  72  94 CALM      29.82F
$$

TNZ083-085-099-290200-
SOUTHEAST TENNESSEE

CITY           SKY/WX    TMP DP  RH WIND       PRES   REMARKS
CHATTANOOGA    CLOUDY    80  73  79 SW9       29.79S
DAYTON         CLOUDY    77  77 100 CALM      29.77S
$$

SKY/WX REPORTED AS FAIR MEANS FEW OR NO CLOUDS BELOW
12 THOUSAND FEET.




USA.gov is the U.S. government's official web portal to all federal, state and local government web resources and services.